Regional Weather Roundup
Issued by NWS

Home | Current Version | Previous Version | Text Only | Print | Product List | Glossary Off
Versions: 1 2 3 4 5 6 7 8 9 10 11 12 13 14 15 16 17 18 19 20 21 22 23 24 25 26 27 28 29 30 31 32 33 34 35 36 37 38 39 40 41 42 43 44 45 46 47 48 49 50

000
ASUS45 KSLC 190710
RWRUT

UTAH REGIONAL WEATHER ROUNDUP
NATIONAL WEATHER SERVICE SALT LAKE CITY UT
1200 AM MST FRI DEC 19 2014

UTZ001>011-023>025-190800-

NORTHERN UTAH

CITY           SKY/WX    TMP DP  RH WIND       PRES   REMARKS
BRIGHAM CITY   PTCLDY    30  26  86 CALM      30.19S
HILL AFB       CLEAR     31  26  82 E12       30.18S WCI  22
LOGAN          CLEAR     26  23  88 SW7       30.18F WCI  18
OGDEN          CLEAR     31  27  85 S9        30.18F WCI  23
PROVO AIRPORT  CLEAR     27  21  80 SE7       30.21F WCI  19
SALT LAKE CITY PTCLDY    32  26  78 SE8       30.19F WCI  25
VERNAL         CLOUDY    27  23  85 E3        30.23S
WENDOVER       PTCLDY    21  16  79 CALM      30.18S
HEBER CITY     CLOUDY    28  25  86 CALM      30.20S
WEST JORDAN    CLEAR     30  28  93 S7        30.20S WCI  23

$$

UTZ012>022-026-027-190800-

SOUTHERN/CENTRAL UTAH

CITY           SKY/WX    TMP DP  RH WIND       PRES   REMARKS
BLANDING       CLEAR     26  23  89 N6        30.26S WCI  19
BRYCE CANYON   PTCLDY    13  10  88 SW5       30.21R WCI   5
CEDAR CITY     CLEAR     28  21  75 SE8       30.20S WCI  20
DELTA          PTCLDY    26  24  92 E5        30.19F WCI  20
MILFORD        CLEAR     26  22  84 SW8       30.19F WCI  18
MOAB/CYNLANDS  CLEAR     28  27  96 CALM      30.19F
PRICE          CLEAR     24  19  81 NE7       30.19R WCI  16
ST GEORGE      SUNNY     39  30  70 CALM      30.26R
KANAB          CLEAR     32  32 100 NW8       30.27S WCI  25

$$

REGIONAL REPORTS     COLORADO/ARIZONA

CITY           SKY/WX    TMP DP  RH WIND       PRES   REMARKS
CRAIG, CO      HAZE      24  19  81 CALM      30.18F VSB 1/4
GRAND JUNCTION CLOUDY    32  30  92 SE6       30.20S WCI  26
RIFLE          LGT SNOW  32  30  92 CALM      30.20S FOG
MONTROSE       CLOUDY    32  30  92 S3        30.21S
CORTEZ         CLEAR     22  20  92 NE6       30.20R WCI  14
PAGE, AZ       CLEAR     37  30  75 W3        30.21R
GRAND CANYON   CLEAR     20  18  92 CALM      30.22S
KINGMAN        CLEAR     35  32  88 E8        30.22S WCI  29
FLAGSTAFF      CLEAR     17  13  84 CALM      30.21S

$$

REGIONAL REPORTS    NEVADA/IDAHO/WYOMING

CITY           SKY/WX    TMP DP  RH WIND       PRES   REMARKS
LAS VEGAS, NV  PTCLDY    45  36  70 S8        30.18F
ELY            CLEAR     19  16  88 SE8       30.20R WCI   9
ELKO           MOCLDY    26  23  88 CALM      30.15R
POCATELLO, ID  CLOUDY    37  29  72 S13       30.13S WCI  29
BURLEY         CLOUDY    38  27  64 SW13      30.12S WCI  30
EVANSTON, WY   PTCLDY    20  18  92 SW10      30.15S WCI   9
ROCK SPRINGS   PTCLDY    21  17  84 SW13      30.13S WCI   9
KEMMERER       PTCLDY    23  21  93 SW6G17    30.14R WCI  16

$$


USA.gov is the U.S. government's official web portal to all federal, state and local government web resources and services.